Regional Weather Roundup
Issued by NWS

Home | Current Version | Previous Version | Graphics & Text | Print | Product List | Glossary On
Versions: 1 2 3 4 5 6 7 8 9 10 11 12 13 14 15 16 17 18 19 20 21 22 23 24 25 26 27
000
ASUS43 KDMX 222107
RWRIA

WEATHER ROUNDUP FOR IOWA
NATIONAL WEATHER SERVICE DES MOINES IA
400 PM CDT TUE APR 22 2014

NOTE: "FAIR" INDICATES FEW OR NO CLOUDS BELOW 12,000 FEET WITH NO
SIGNIFICANT WEATHER AND/OR OBSTRUCTIONS TO VISIBILITY.

* - THESE STATIONS ARE NOT NWS STATIONS...THUS NOT UNDER NWS
QUALITY CONTROL.  THEY ALSO DO NOT REPORT WEATHER SUCH
AS PRECIPITATION OR FOG.

IAZ001>003-012>014-020>022-031>034-043>046-222200-
   NORTHWEST IOWA

CITY           SKY/WX    TMP DP  RH WIND       PRES   REMARKS
CARROLL *      SUNNY     63  32  31 VRB5      30.06F
CHEROKEE *     MOSUNNY   70  32  24 SE3       30.04F
DENISON *      SUNNY     63  34  34 VRB6G14   30.04F
LE MARS *      MOSUNNY   66  32  28 SE7G16    30.03F
ORANGE CITY *  SUNNY     66  27  22 SE5       30.03F
SHELDON *      MOSUNNY   63  32  31 S9        30.03F
SIOUX CITY     MOSUNNY   69  34  27 SE14G20   30.01F
SPENCER        SUNNY     63  31  30 VRB3      30.05F
STORM LAKE *   SUNNY     63  32  31 SE9       30.06F
$$

IAZ055>058-069>071-079>083-090>094-222200-
   SOUTHWEST IOWA

CITY           SKY/WX    TMP DP  RH WIND       PRES   REMARKS
ATLANTIC *     SUNNY     64  34  32 NE7       30.05F
AUDUBON *      SUNNY     66  19  16 N3        30.06F
CLARINDA *     SUNNY     68  30  24 NE8       30.06F
COUNCIL BLFS * SUNNY     66  34  30 SE10      30.03F
CRESTON *      SUNNY     64  30  27 NE5G12    30.06F
HARLAN  *      SUNNY     66  32  28 SE8       30.08F
LAMONI         SUNNY     65  33  30 VRB5      30.05F
RED OAK *      SUNNY     66  36  32 E7        30.05F
SHENANDOAH *   SUNNY     68  32  26 VRB7      30.05F
$$

IAZ047>049-059>061-072>074-084-222200-
   CENTRAL IOWA

CITY           SKY/WX    TMP DP  RH WIND       PRES   REMARKS
AMES           SUNNY     64  33  31 N13G20    30.05F
ANKENY *       SUNNY     64  34  32 N12       30.05F
CHARITON *     SUNNY     64  34  32 N10       30.05F
DES MOINES     MOSUNNY   67  31  26 NE14      30.06F
GRINNELL*      SUNNY     63  30  29 NW14G20   30.05F
KNOXVILLE *    SUNNY     63  28  27 N13       30.04F
MARSHALLTOWN   SUNNY     61  32  33 NW16G23   30.05F
NEWTON *       SUNNY     61  30  31 NW8G16    30.06F
PELLA *        SUNNY     66  34  30 N10       30.06F
PERRY *          N/A     64  25  22 NE3       30.06F
$$

IAZ004>006-015-016-023>025-035-036-222200-
   NORTH CENTRAL IOWA

CITY           SKY/WX    TMP DP  RH WIND       PRES   REMARKS
ALGONA *       SUNNY     61  32  33 VRB3      30.06F
CLARION *      SUNNY     59  34  38 VRB6G12   30.06F
ESTHERVILLE    SUNNY     62  31  31 CALM      30.05F
FORT DODGE *   SUNNY     61  36  39 E3        30.08F
MASON CITY     SUNNY     60  33  36 N14       30.06F
FOREST CITY *  SUNNY     59  32  36 NE6       30.05F
IOWA FALLS *     N/A     59  32  36 N8        30.06F
$$

IAZ007>011-017>019-026>030-037>042-050>054-066-222200-
   NORTHEAST IOWA

CITY           SKY/WX    TMP DP  RH WIND       PRES   REMARKS
CEDAR RAPIDS   SUNNY     61  31  32 NW16G23   30.03F
CHARLES CITY * SUNNY     55  37  50 N16G25    30.05F
CLINTON *      SUNNY     61  27  27 N20       30.03S
DECORAH *      SUNNY     55  30  38 N16       30.03F
DUBUQUE        MOSUNNY   57  27  31 NW18      30.01F
MONTICELLO *   SUNNY     61  28  29 NW21      30.01F
OELWEIN *      SUNNY    N/A N/A N/A N16G22    30.04F
WATERLOO       SUNNY     59  32  36 N12G23    30.05F
$$

IAZ064-065-067-068-078-222200-
   EAST CENTRAL IOWA

CITY           SKY/WX    TMP DP  RH WIND       PRES   REMARKS
DAVENPORT      SUNNY     63  27  25 N20G25    30.01F
IOWA CITY      SUNNY     62  33  33 N16G24    30.04F
MT. PLEASANT * SUNNY     64  25  22 NW14G20   30.03F
MUSCATINE *    SUNNY     63  28  27 N13G21    30.02F
QUAD CITIES    SUNNY     63  28  26 NW16G24   30.00F
$$

IAZ062-063-075>077-085>089-095>099-222200-
   SOUTHEAST IOWA

CITY           SKY/WX    TMP DP  RH WIND       PRES   REMARKS
BURLINGTON     MOSUNNY   64  27  24 NW14G23   30.02F
FAIRFIELD *    SUNNY     63  30  29 NW15G22   30.04F
FORT MADISON * SUNNY     64  30  27 NW17      30.03F
KEOKUK *       SUNNY     64  32  29 N9G20     30.02F
OSKALOOSA *      N/A     64  30  27 N8G22     30.05F
CENTERVILLE *  SUNNY     63  32  31 NW12      30.07F
OTTUMWA        SUNNY     64  32  30 N13G21    30.04F
WASHINGTON *   SUNNY     64  30  27 NW16G23   30.04F
$$

ABBREVIATIONS USED IN REMARKS
   TC - TEMPERATURES IN CELSIUS
  WCI - WIND CHILL INDEX
   HX - HEAT INDEX
  VSB - VISIBILITY
$$




USA.gov is the U.S. government's official web portal to all federal, state and local government web resources and services.